• In Uzbekistan
  • List of Countries
  • For 7 days
  • Water Temperature
  • Satellite Maps
  • Weather Map
  • Weather Widgets
  • user-avatar
    Login

    Hourly Weather Mostar

    Today, 16 December, Saturday

    Time Temperature Precipitation Wind Pressure Humidity
    00:00 +12°C° 3.1 mm 13 mps 741 mmHg 88%
    01:00 +12°C° 3.1 mm 13 mps 741 mmHg 88%
    02:00 +12°C° 2.2 mm 11 mps 741 mmHg 89%
    03:00 +11°C° 2.2 mm 10 mps 742 mmHg 90%
    04:00 +11°C° 2.2 mm 8 mps 742 mmHg 91%
    05:00 +11°C° 0.8 mm 7 mps 743 mmHg 90%
    06:00 +10°C° 0.8 mm 5 mps 744 mmHg 88%
    07:00 +11°C° 0.8 mm 4 mps 744 mmHg 86%
    08:00 +11°C° 0.2 mm 3 mps 745 mmHg 84%
    09:00 +11°C° 0.2 mm 3 mps 746 mmHg 82%
    10:00 +12°C° 0.2 mm 2 mps 747 mmHg 80%
    11:00 +12°C° 0.1 mm 2 mps 747 mmHg 78%
    12:00 +12°C° 0.1 mm 1 mps 747 mmHg 76%
    13:00 +12°C° 0.1 mm 1 mps 747 mmHg 73%
    14:00 +12°C° 0.1 mm 1 mps 747 mmHg 76%
    15:00 +11°C° 0.1 mm 1 mps 747 mmHg 79%
    16:00 +11°C° 0.1 mm 1 mps 747 mmHg 82%
    17:00 +10°C° 0.4 mm 1 mps 748 mmHg 83%
    18:00 +9°C° 0.4 mm 2 mps 748 mmHg 85%
    19:00 +9°C° 0.4 mm 2 mps 748 mmHg 86%
    20:00 +9°C° 0.9 mm 3 mps 749 mmHg 86%
    21:00 +9°C° 0.9 mm 3 mps 749 mmHg 86%
    22:00 +9°C° 0.9 mm 3 mps 749 mmHg 87%
    23:00 +8°C° 0.7 mm 3 mps 750 mmHg 87%

    Tomorrow, 17 December, Sunday

    Time Temperature Precipitation Wind Pressure Humidity
    00:00 +8°C° 0.7 mm 3 mps 750 mmHg 87%
    01:00 +8°C° 0.7 mm 3 mps 750 mmHg 88%
    02:00 +7°C° 0.7 mm 3 mps 750 mmHg 87%
    03:00 +7°C° 0.7 mm 2 mps 750 mmHg 87%
    04:00 +7°C° 0.7 mm 2 mps 750 mmHg 87%
    05:00 +7°C° 0.6 mm 3 mps 751 mmHg 86%
    06:00 +5°C° 0.6 mm 3 mps 751 mmHg 85%
    07:00 +5°C° 0.6 mm 4 mps 752 mmHg 84%
    08:00 +5°C° 0.3 mm 4 mps 752 mmHg 82%
    09:00 +5°C° 0.3 mm 4 mps 753 mmHg 80%
    10:00 +5°C° 0.3 mm 5 mps 753 mmHg 79%
    11:00 +5°C° 0.2 mm 5 mps 754 mmHg 77%
    12:00 +5°C° 0.2 mm 5 mps 754 mmHg 76%
    13:00 +5°C° 0.2 mm 6 mps 754 mmHg 75%
    14:00 +5°C° 0.1 mm 5 mps 754 mmHg 75%
    15:00 +5°C° 0.1 mm 5 mps 755 mmHg 75%
    16:00 +3°C° 0.1 mm 5 mps 755 mmHg 75%
    17:00 +3°C° 0 mm 5 mps 756 mmHg 75%
    18:00 +2°C° 0 mm 5 mps 756 mmHg 75%
    19:00 +2°C° 0 mm 5 mps 757 mmHg 75%
    20:00 +2°C° 0 mm 5 mps 757 mmHg 75%
    21:00 +2°C° 0 mm 5 mps 758 mmHg 74%
    22:00 +2°C° 0 mm 5 mps 758 mmHg 74%
    23:00 +2°C° 0 mm 5 mps 759 mmHg 73%

    Day after tomorrow, 18 December, Monday

    Time Temperature Precipitation Wind Pressure Humidity
    00:00 +1°C° 0 mm 5 mps 759 mmHg 73%
    01:00 +1°C° 0 mm 5 mps 759 mmHg 73%
    02:00 +1°C° 0 mm 5 mps 759 mmHg 72%
    03:00 +1°C° 0 mm 5 mps 759 mmHg 72%
    04:00 +1°C° 0 mm 5 mps 760 mmHg 71%
    05:00 +1°C° 0 mm 5 mps 760 mmHg 72%
    06:00 0°C° 0 mm 4 mps 760 mmHg 72%
    07:00 0°C° 0 mm 4 mps 761 mmHg 72%
    08:00 +1°C° 0 mm 4 mps 761 mmHg 69%
    09:00 +1°C° 0 mm 4 mps 761 mmHg 66%
    10:00 +2°C° 0 mm 5 mps 762 mmHg 62%
    11:00 +3°C° 0 mm 4 mps 761 mmHg 61%
    12:00 +4°C° 0 mm 4 mps 761 mmHg 59%
    13:00 +4°C° 0 mm 4 mps 761 mmHg 58%
    14:00 +4°C° 0 mm 3 mps 760 mmHg 61%
    15:00 +3°C° 0 mm 3 mps 760 mmHg 64%
    16:00 +2°C° 0 mm 3 mps 760 mmHg 68%
    17:00 +2°C° 0 mm 3 mps 761 mmHg 69%
    18:00 +1°C° 0 mm 3 mps 761 mmHg 70%
    19:00 0°C° 0 mm 3 mps 761 mmHg 72%
    20:00 0°C° 0 mm 3 mps 762 mmHg 71%
    21:00 +1°C° 0 mm 2 mps 762 mmHg 71%
    22:00 +1°C° 0 mm 2 mps 762 mmHg 70%
    23:00 +1°C° 0 mm 2 mps 763 mmHg 70%

    19 December, Tuesday

    Time Temperature Precipitation Wind Pressure Humidity
    00:00 +1°C° 0 mm 2 mps 763 mmHg 69%
    01:00 +1°C° 0 mm 2 mps 763 mmHg 68%
    02:00 +1°C° 0 mm 2 mps 763 mmHg 68%
    03:00 0°C° 0 mm 3 mps 763 mmHg 68%
    04:00 0°C° 0 mm 3 mps 764 mmHg 68%
    05:00 0°C° 0 mm 3 mps 764 mmHg 68%
    06:00 0°C° 0 mm 3 mps 765 mmHg 69%
    07:00 0°C° 0 mm 3 mps 765 mmHg 70%
    08:00 +1°C° 0 mm 3 mps 765 mmHg 67%
    09:00 +2°C° 0 mm 3 mps 766 mmHg 65%
    10:00 +3°C° 0 mm 3 mps 766 mmHg 63%
    11:00 +3°C° 0 mm 3 mps 766 mmHg 62%
    12:00 +4°C° 0 mm 3 mps 766 mmHg 60%
    13:00 +5°C° 0 mm 3 mps 766 mmHg 58%
    14:00 +4°C° 0 mm 3 mps 766 mmHg 62%
    15:00 +3°C° 0 mm 3 mps 766 mmHg 66%
    16:00 +2°C° 0 mm 3 mps 766 mmHg 70%
    17:00 +2°C° 0 mm 3 mps 766 mmHg 72%
    18:00 +1°C° 0 mm 3 mps 767 mmHg 74%
    19:00 0°C° 0 mm 3 mps 767 mmHg 76%
    20:00 0°C° 0 mm 3 mps 768 mmHg 76%
    21:00 -1°C° 0 mm 3 mps 768 mmHg 77%
    22:00 -1°C° 0 mm 3 mps 768 mmHg 77%
    23:00 -1°C° 0 mm 3 mps 768 mmHg 76%

    20 December, Wednesday

    Time Temperature Precipitation Wind Pressure Humidity
    00:00 -1°C° 0 mm 3 mps 768 mmHg 76%
    01:00 -2°C° 0 mm 3 mps 768 mmHg 75%
    02:00 -2°C° 0 mm 3 mps 768 mmHg 73%
    03:00 -2°C° 0 mm 3 mps 767 mmHg 72%
    04:00 -2°C° 0 mm 2 mps 767 mmHg 70%
    05:00 -1°C° 0 mm 2 mps 767 mmHg 69%
    06:00 -1°C° 0 mm 2 mps 767 mmHg 68%
    07:00 -1°C° 0 mm 2 mps 767 mmHg 66%
    08:00 +1°C° 0 mm 2 mps 767 mmHg 64%
    09:00 +2°C° 0 mm 2 mps 767 mmHg 62%
    10:00 +3°C° 0 mm 2 mps 767 mmHg 60%
    11:00 +4°C° 0 mm 2 mps 767 mmHg 59%
    12:00 +5°C° 0 mm 2 mps 766 mmHg 59%
    13:00 +6°C° 0 mm 2 mps 766 mmHg 59%
    14:00 +5°C° 0 mm 2 mps 766 mmHg 63%
    15:00 +4°C° 0 mm 2 mps 766 mmHg 68%
    16:00 +4°C° 0 mm 2 mps 766 mmHg 72%
    17:00 +3°C° 0 mm 2 mps 766 mmHg 75%
    18:00 +3°C° 0 mm 2 mps 767 mmHg 78%
    19:00 +2°C° 0 mm 2 mps 767 mmHg 80%
    20:00 +2°C° 0 mm 2 mps 767 mmHg 81%
    21:00 +2°C° 0 mm 2 mps 767 mmHg 81%
    22:00 +2°C° 0 mm 2 mps 768 mmHg 82%
    23:00 +1°C° 0 mm 2 mps 768 mmHg 82%

    21 December, Thursday

    Time Temperature Precipitation Wind Pressure Humidity
    00:00 +1°C° 0 mm 2 mps 768 mmHg 81%
    01:00 +1°C° 0 mm 2 mps 768 mmHg 81%
    02:00 +1°C° 0 mm 2 mps 768 mmHg 80%
    03:00 +1°C° 0 mm 2 mps 767 mmHg 79%
    04:00 +1°C° 0 mm 2 mps 767 mmHg 79%
    05:00 +2°C° 0 mm 2 mps 767 mmHg 78%
    06:00 +2°C° 0 mm 2 mps 767 mmHg 77%
    07:00 +2°C° 0 mm 2 mps 767 mmHg 77%
    08:00 +4°C° 0 mm 2 mps 767 mmHg 74%
    09:00 +6°C° 0 mm 1 mps 767 mmHg 71%
    10:00 +7°C° 0 mm 1 mps 767 mmHg 68%
    11:00 +8°C° 0 mm 1 mps 767 mmHg 69%
    12:00 +9°C° 0 mm 1 mps 767 mmHg 70%
    13:00 +8°C° 0 mm 2 mps 767 mmHg 71%
    14:00 +8°C° 0 mm 2 mps 767 mmHg 75%
    15:00 +7°C° 0 mm 2 mps 767 mmHg 78%
    16:00 +7°C° 0 mm 2 mps 767 mmHg 82%
    17:00 +7°C° 0 mm 2 mps 767 mmHg 83%
    18:00 +6°C° 0 mm 2 mps 767 mmHg 84%
    19:00 +6°C° 0 mm 2 mps 767 mmHg 86%
    20:00 +6°C° 0 mm 2 mps 767 mmHg 85%
    21:00 +6°C° 0 mm 2 mps 767 mmHg 85%
    22:00 +6°C° 0 mm 2 mps 766 mmHg 85%
    23:00 +6°C° 0 mm 2 mps 766 mmHg 84%
    Show more